Regional Weather Roundup
Issued by NWS Charleston, WV

Home | Current Version | Previous Version | Graphics & Text | Print | Product List | Glossary On
Versions: 1 2 3 4 5 6 7 8 9 10 11 12 13 14 15 16 17 18 19 20 21 22 23 24 25 26 27 28 29 30 31 32 33 34 35 36 37 38 39 40 41 42 43 44 45 46 47 48 49 50
000
ASUS41 KRLX 171410
RWRRLX
West Virginia Regional Weather Roundup
National Weather Service Charleston WV
1000 AM EDT WED SEP 17 2014

Note: "fair" indicates few or no clouds below 12,000 feet with no
significant weather and/or obstructions to visibility.

WVZ003-171500-
Northern Panhandle of West Virginia

CITY           SKY/WX    TMP DP  RH WIND       PRES   REMARKS
WHEELING       SUNNY     57  52  83 SE5       30.07F
$$

WVZ009-171500-
Northwest West Virginia

CITY           SKY/WX    TMP DP  RH WIND       PRES   REMARKS
PARKERSBURG    FOG       55  54  96 CALM      30.09S VSB 1
$$

WVZ006-171500-
Western West Virginia

CITY           SKY/WX    TMP DP  RH WIND       PRES   REMARKS
HUNTINGTON     MOSUNNY   57  53  86 N3        30.05S
$$

WVZ015-171500-
West Central West Virginia

CITY           SKY/WX    TMP DP  RH WIND       PRES   REMARKS
CHARLESTON     CLOUDY    57  56  96 SE3       30.06S FOG
$$

WVZ031-171500-
North Central West Virginia

CITY           SKY/WX    TMP DP  RH WIND       PRES   REMARKS
CLARKSBURG     CLOUDY    53  52  96 CALM      30.07F FOG
MORGANTOWN     SUNNY     60  51  72 CALM      30.08F
$$

WVZ035-042-045-171500-
South Central West Virginia

CITY           SKY/WX    TMP DP  RH WIND       PRES   REMARKS
BECKLEY        PTSUNNY   59  52  77 SE9       30.07S
BLUEFIELD      PTSUNNY   62  52  69 VRB7      30.08S
LEWISBURG      PTSUNNY   57  52  81 N6        30.09S
$$

WVZ047-171500-
Northern Mountains of West Virginia

CITY           SKY/WX    TMP DP  RH WIND       PRES   REMARKS
ELKINS         CLOUDY    53  49  86 CALM      30.10S
$$

WVZ052-171500-
Eastern Panhandle of West Virginia

CITY           SKY/WX    TMP DP  RH WIND       PRES   REMARKS
MARTINSBURG    SUNNY     60  49  66 CALM      30.09S
PETERSBURG     CLOUDY    55  50  82 CALM      30.11S
$$



USA.gov is the U.S. government's official web portal to all federal, state and local government web resources and services.